Regional Weather Roundup
Issued by NWS

Home | Current Version | Previous Version | Graphics & Text | Print | Product List | Glossary On
Versions: 1 2 3 4 5 6 7 8 9 10 11 12 13 14 15 16 17 18 19 20 21 22 23 24 25 26 27 28 29 30 31 32 33 34 35 36 37 38 39 40 41 42 43 44 45 46 47 48 49 50
000
ASUS43 KOAX 201810
RWRNE

WEATHER ROUNDUP FOR NEBRASKA
NATIONAL WEATHER SERVICE OMAHA NE
100 PM CDT SUN APR 20 2014

NOTES: SATELLITE DATA IS BEING USED TO AUGMENT CLOUD COVER ABOVE
       12000 FEET.
       "FAIR" INDICATES FEW OR NO CLOUDS BELOW 12,000 FEET WITH NO
       SIGNIFICANT WEATHER AND/OR OBSTRUCTIONS TO VISIBILITY.

  * THESE STATIONS DO NOT REPORT WEATHER SUCH AS RAIN...SNOW OR FOG.

NEZ001>004-019>022-054>056-201900-
NEBRASKA PANHANDLE

CITY           SKY/WX    TMP DP  RH WIND       PRES   REMARKS
SCOTTSBLUFF    SUNNY     74  36  25 W13       29.99F
6HR MIN TEMP:  38; 6HR MAX TEMP:  74;

ALLIANCE       SUNNY     71  36  27 SW8       29.97F
6HR MIN TEMP:  36; 6HR MAX TEMP:  72;

CHADRON        SUNNY     72  39  30 NW7       29.94F
6HR MIN TEMP:  46; 6HR MAX TEMP:  72;

KIMBALL        MOSUNNY   70  28  20 NW10G17   30.02F
SIDNEY         PTSUNNY   68  40  35 SW9       30.03F
6HR MIN TEMP:  36; 6HR MAX TEMP:  68; 6HR PCP: TRACE;

$$

NEZ057>060-069>072-079>082-201900-
SOUTHWEST NEBRASKA

CITY           SKY/WX    TMP DP  RH WIND       PRES   REMARKS
NORTH PLATTE   PTSUNNY   68  49  50 E7        29.98F
6HR MIN TEMP:  35; 6HR MAX TEMP:  71;

IMPERIAL       PTSUNNY   67  48  50 N5        30.00F
6HR MIN TEMP:  41; 6HR MAX TEMP:  67;

LEXINGTON      PTSUNNY   69  52  53 S6        29.99F
MCCOOK         MOSUNNY   68  54  60 VRB5      29.98F
6HR MIN TEMP:  49; 6HR MAX TEMP:  68;

OGALLALA       MOSUNNY   71  43  35 SE3       29.99F
$$

NEZ005>010-023>029-035>040-094-201900-
NORTH CENTRAL NEBRASKA

CITY           SKY/WX    TMP DP  RH WIND       PRES   REMARKS
VALENTINE      SUNNY     74  40  29 S13G18    29.96F
6HR MIN TEMP:  32; 6HR MAX TEMP:  74;

AINSWORTH      SUNNY     74  42  32 S12       29.97F
BROKEN BOW     MOSUNNY   69  49  48 SE9       29.97F
6HR MIN TEMP:  37; 6HR MAX TEMP:  71;

O`NEILL        MOSUNNY   73  43  33 SE8       29.97F
ORD            PTSUNNY   73  48  41 CALM      29.95F
6HR MIN TEMP:  43; 6HR MAX TEMP:  74;

THEDFORD       SUNNY     75  41  30 S6        29.98F
$$

NEZ041-046>049-061>064-073>077-083>087-201900-
SOUTH CENTRAL NEBRASKA

CITY           SKY/WX    TMP DP  RH WIND       PRES   REMARKS
GRAND ISLAND   MOSUNNY   77  51  40 SW12      29.97F
6HR MIN TEMP:  51; 6HR MAX TEMP:  77;

AURORA         MOSUNNY   75  50  40 SW10      29.97F
HASTINGS       CLOUDY    72  49  44 S10       29.98S
6HR MIN TEMP:  50; 6HR MAX TEMP:  75;

HEBRON         PTSUNNY   79  51  37 SW13G20   29.98F
HOLDREGE       PTSUNNY   73  51  45 S8        29.98F
KEARNEY *      MOSUNNY   73  52  46 SW9G16    29.99S
YORK           MOSUNNY   75  50  41 W9        29.97F
$$

NEZ011>018-030>034-042>045-201900-
NORTHEAST NEBRASKA

CITY           SKY/WX    TMP DP  RH WIND       PRES   REMARKS
NORFOLK        PTSUNNY   72  52  49 VRB3      29.94F
6HR MIN TEMP:  51; 6HR MAX TEMP:  72;

ALBION         PTSUNNY   71  47  42 CALM      29.96F
BLAIR          MOSUNNY   78  50  37 S15       29.97F
COLUMBUS *     MOSUNNY   75  54  46 SW8       29.96F
FREMONT        MOSUNNY   79  50  35 S6        29.96F
TEKAMAH        PTSUNNY   82  51  34 S13       29.94F
6HR MIN TEMP:  58; 6HR MAX TEMP:  82;

$$

NEZ050>053-065>068-078-088>093-201900-
SOUTHEAST NEBRASKA

CITY           SKY/WX    TMP DP  RH WIND       PRES   REMARKS
LINCOLN        MOSUNNY   81  51  35 SW16      29.97F
6HR MIN TEMP:  62; 6HR MAX TEMP:  81;

OMAHA EPPLEY   PTSUNNY   79  52  38 SW14G20   29.97F
6HR MIN TEMP:  59; 6HR MAX TEMP:  79;

BEATRICE       PTSUNNY   80  52  36 S15       29.99F
FALLS CITY     MOSUNNY   81  54  39 S15G24    30.00F
6HR MIN TEMP:  59; 6HR MAX TEMP:  81;

NEBRASKA CITY  MOSUNNY   78  50  37 SW14      30.00S
PLATTSMOUTH    MOSUNNY   80  46  29 S15G21    29.98F
$$

NEZ044-045-051>053-067-201900-
OMAHA AREA

CITY           SKY/WX    TMP DP  RH WIND       PRES   REMARKS
OMAHA EPPLEY   PTSUNNY   79  52  38 SW14G20   29.97F
6HR MIN TEMP:  59; 6HR MAX TEMP:  79;

BLAIR          MOSUNNY   78  50  37 S15       29.97F
FREMONT        MOSUNNY   79  50  35 S6        29.96F
MILLARD        MOSUNNY   76  52  43 CALM      29.97F
OFFUTT AFB     MOSUNNY   80  53  39 S9        29.97F
PLATTSMOUTH    MOSUNNY   80  46  29 S15G21    29.98F
WAHOO          FAIR      80  46  30 SW9G17    29.97S
$$



USA.gov is the U.S. government's official web portal to all federal, state and local government web resources and services.